• In Uzbekistan
  • List of Countries
  • For 7 days
  • Water Temperature
  • Satellite Maps
  • Weather Map
  • Weather Widgets
  • user-avatar
    Login

    Hourly Weather Novonykanorivka

    Today, 22 August, Wednesday

    Time Temperature Precipitation Wind Pressure Humidity
    00:00 +21°C° 0 mm 2 mps 749 mmHg 33%
    01:00 +20°C° 0 mm 2 mps 749 mmHg 36%
    02:00 +20°C° 0 mm 2 mps 749 mmHg 38%
    03:00 +19°C° 0 mm 2 mps 749 mmHg 41%
    04:00 +19°C° 0 mm 2 mps 749 mmHg 49%
    05:00 +19°C° 0 mm 3 mps 749 mmHg 58%
    06:00 +18°C° 0 mm 3 mps 750 mmHg 67%
    07:00 +20°C° 0 mm 3 mps 750 mmHg 65%
    08:00 +21°C° 0 mm 4 mps 750 mmHg 64%
    09:00 +23°C° 0 mm 5 mps 750 mmHg 63%
    10:00 +25°C° 0 mm 5 mps 750 mmHg 56%
    11:00 +26°C° 0 mm 5 mps 751 mmHg 49%
    12:00 +27°C° 0 mm 6 mps 751 mmHg 42%
    13:00 +27°C° 0 mm 6 mps 751 mmHg 41%
    14:00 +27°C° 0 mm 6 mps 751 mmHg 39%
    15:00 +28°C° 0 mm 6 mps 751 mmHg 37%
    16:00 +27°C° 0 mm 6 mps 751 mmHg 38%
    17:00 +26°C° 0 mm 5 mps 752 mmHg 39%
    18:00 +25°C° 0 mm 5 mps 752 mmHg 40%
    19:00 +22°C° 0 mm 5 mps 753 mmHg 44%
    20:00 +20°C° 0 mm 4 mps 753 mmHg 48%
    21:00 +18°C° 0 mm 4 mps 754 mmHg 52%
    22:00 +17°C° 0 mm 3 mps 754 mmHg 53%
    23:00 +16°C° 0 mm 3 mps 754 mmHg 54%

    Tomorrow, 23 August, Thursday

    Time Temperature Precipitation Wind Pressure Humidity
    00:00 +16°C° 0 mm 3 mps 755 mmHg 56%
    01:00 +14°C° 0 mm 3 mps 755 mmHg 57%
    02:00 +13°C° 0 mm 3 mps 755 mmHg 59%
    03:00 +14°C° 0 mm 2 mps 756 mmHg 61%
    04:00 +14°C° 0 mm 2 mps 756 mmHg 63%
    05:00 +13°C° 0 mm 2 mps 756 mmHg 64%
    06:00 +13°C° 0 mm 2 mps 756 mmHg 66%
    07:00 +15°C° 0 mm 2 mps 756 mmHg 59%
    08:00 +17°C° 0 mm 3 mps 757 mmHg 53%
    09:00 +20°C° 0 mm 3 mps 757 mmHg 46%
    10:00 +21°C° 0 mm 3 mps 757 mmHg 42%
    11:00 +22°C° 0 mm 3 mps 757 mmHg 37%
    12:00 +24°C° 0 mm 3 mps 756 mmHg 32%
    13:00 +25°C° 0 mm 3 mps 756 mmHg 31%
    14:00 +25°C° 0 mm 3 mps 756 mmHg 29%
    15:00 +26°C° 0 mm 3 mps 756 mmHg 28%
    16:00 +26°C° 0 mm 3 mps 755 mmHg 30%
    17:00 +25°C° 0 mm 3 mps 755 mmHg 31%
    18:00 +25°C° 0 mm 3 mps 755 mmHg 33%
    19:00 +22°C° 0 mm 3 mps 755 mmHg 37%
    20:00 +20°C° 0 mm 3 mps 755 mmHg 42%
    21:00 +18°C° 0 mm 3 mps 756 mmHg 47%
    22:00 +17°C° 0 mm 3 mps 756 mmHg 48%
    23:00 +16°C° 0 mm 3 mps 756 mmHg 50%

    Day after tomorrow, 24 August, Friday

    Time Temperature Precipitation Wind Pressure Humidity
    00:00 +16°C° 0 mm 3 mps 756 mmHg 52%
    01:00 +14°C° 0 mm 3 mps 756 mmHg 53%
    02:00 +14°C° 0 mm 3 mps 756 mmHg 54%
    03:00 +13°C° 0 mm 3 mps 756 mmHg 55%
    04:00 +13°C° 0 mm 3 mps 756 mmHg 57%
    05:00 +13°C° 0 mm 3 mps 756 mmHg 58%
    06:00 +14°C° 0 mm 2 mps 756 mmHg 59%
    07:00 +16°C° 0 mm 3 mps 756 mmHg 53%
    08:00 +19°C° 0 mm 3 mps 756 mmHg 47%
    09:00 +21°C° 0 mm 3 mps 756 mmHg 41%
    10:00 +24°C° 0 mm 3 mps 755 mmHg 37%
    11:00 +25°C° 0 mm 4 mps 755 mmHg 33%
    12:00 +27°C° 0 mm 4 mps 755 mmHg 29%
    13:00 +27°C° 0 mm 4 mps 755 mmHg 28%
    14:00 +28°C° 0 mm 4 mps 754 mmHg 27%
    15:00 +28°C° 0 mm 4 mps 754 mmHg 26%
    16:00 +28°C° 0 mm 4 mps 754 mmHg 27%
    17:00 +27°C° 0 mm 4 mps 753 mmHg 29%
    18:00 +27°C° 0 mm 4 mps 753 mmHg 31%
    19:00 +25°C° 0 mm 3 mps 753 mmHg 35%
    20:00 +21°C° 0 mm 3 mps 753 mmHg 39%
    21:00 +19°C° 0 mm 3 mps 753 mmHg 43%
    22:00 +19°C° 0 mm 3 mps 753 mmHg 45%
    23:00 +18°C° 0 mm 3 mps 753 mmHg 46%

    25 August, Saturday

    Time Temperature Precipitation Wind Pressure Humidity
    00:00 +17°C° 0 mm 4 mps 753 mmHg 48%
    01:00 +17°C° 0 mm 3 mps 753 mmHg 50%
    02:00 +16°C° 0 mm 3 mps 753 mmHg 51%
    03:00 +16°C° 0 mm 3 mps 753 mmHg 52%
    04:00 +14°C° 0 mm 3 mps 753 mmHg 53%
    05:00 +14°C° 0 mm 3 mps 753 mmHg 53%
    06:00 +14°C° 0 mm 3 mps 753 mmHg 54%
    07:00 +17°C° 0 mm 3 mps 753 mmHg 48%
    08:00 +20°C° 0 mm 4 mps 753 mmHg 42%
    09:00 +22°C° 0 mm 4 mps 753 mmHg 36%
    10:00 +25°C° 0 mm 4 mps 753 mmHg 32%
    11:00 +27°C° 0 mm 5 mps 753 mmHg 28%
    12:00 +28°C° 0 mm 5 mps 753 mmHg 24%
    13:00 +29°C° 0 mm 5 mps 752 mmHg 24%
    14:00 +29°C° 0 mm 5 mps 752 mmHg 23%
    15:00 +30°C° 0 mm 5 mps 752 mmHg 22%
    16:00 +29°C° 0 mm 4 mps 751 mmHg 24%
    17:00 +29°C° 0 mm 4 mps 751 mmHg 26%
    18:00 +28°C° 0 mm 4 mps 751 mmHg 28%
    19:00 +26°C° 0 mm 4 mps 751 mmHg 31%
    20:00 +24°C° 0 mm 3 mps 751 mmHg 34%
    21:00 +21°C° 0 mm 3 mps 751 mmHg 37%
    22:00 +20°C° 0 mm 3 mps 751 mmHg 39%
    23:00 +19°C° 0 mm 3 mps 751 mmHg 41%

    26 August, Sunday

    Time Temperature Precipitation Wind Pressure Humidity
    00:00 +18°C° 0 mm 3 mps 751 mmHg 42%
    01:00 +18°C° 0 mm 3 mps 751 mmHg 44%
    02:00 +18°C° 0 mm 4 mps 751 mmHg 46%
    03:00 +17°C° 0 mm 4 mps 751 mmHg 48%
    04:00 +17°C° 0 mm 4 mps 751 mmHg 50%
    05:00 +17°C° 0 mm 4 mps 751 mmHg 51%
    06:00 +17°C° 0 mm 4 mps 751 mmHg 52%
    07:00 +19°C° 0 mm 4 mps 751 mmHg 47%
    08:00 +22°C° 0 mm 5 mps 752 mmHg 41%
    09:00 +25°C° 0 mm 5 mps 752 mmHg 36%
    10:00 +27°C° 0 mm 6 mps 751 mmHg 33%
    11:00 +29°C° 0 mm 6 mps 751 mmHg 29%
    12:00 +30°C° 0 mm 7 mps 751 mmHg 26%
    13:00 +32°C° 0 mm 7 mps 750 mmHg 26%
    14:00 +32°C° 0 mm 6 mps 750 mmHg 25%
    15:00 +33°C° 0 mm 6 mps 750 mmHg 24%
    16:00 +32°C° 0 mm 6 mps 750 mmHg 26%
    17:00 +32°C° 0 mm 5 mps 749 mmHg 28%
    18:00 +30°C° 0 mm 5 mps 749 mmHg 29%
    19:00 +28°C° 0 mm 4 mps 749 mmHg 33%
    20:00 +26°C° 0 mm 4 mps 749 mmHg 36%
    21:00 +23°C° 0 mm 4 mps 750 mmHg 39%
    22:00 +23°C° 0 mm 4 mps 749 mmHg 42%
    23:00 +22°C° 0 mm 4 mps 749 mmHg 44%

    27 August, Monday

    Time Temperature Precipitation Wind Pressure Humidity
    00:00 +22°C° 0 mm 5 mps 749 mmHg 46%
    01:00 +22°C° 0 mm 5 mps 749 mmHg 46%
    02:00 +22°C° 0 mm 5 mps 749 mmHg 45%
    03:00 +22°C° 0 mm 5 mps 749 mmHg 45%
    04:00 +21°C° 0 mm 5 mps 750 mmHg 42%
    05:00 +21°C° 0 mm 4 mps 750 mmHg 40%
    06:00 +21°C° 0 mm 4 mps 750 mmHg 38%
    07:00 +22°C° 0 mm 4 mps 750 mmHg 37%
    08:00 +23°C° 0 mm 4 mps 750 mmHg 36%
    09:00 +25°C° 0 mm 4 mps 750 mmHg 35%
    10:00 +27°C° 0 mm 5 mps 750 mmHg 32%
    11:00 +29°C° 0 mm 5 mps 750 mmHg 30%
    12:00 +32°C° 0 mm 5 mps 750 mmHg 28%
    13:00 +32°C° 0 mm 5 mps 750 mmHg 27%
    14:00 +32°C° 0 mm 5 mps 749 mmHg 26%
    15:00 +33°C° 0 mm 5 mps 749 mmHg 25%
    16:00 +32°C° 0 mm 5 mps 749 mmHg 26%
    17:00 +32°C° 0 mm 5 mps 749 mmHg 27%
    18:00 +30°C° 0 mm 4 mps 749 mmHg 28%
    19:00 +28°C° 0 mm 4 mps 749 mmHg 31%
    20:00 +26°C° 0 mm 4 mps 749 mmHg 34%
    21:00 +23°C° 0 mm 4 mps 750 mmHg 37%
    22:00 +22°C° 0 mm 4 mps 750 mmHg 39%
    23:00 +21°C° 0 mm 4 mps 750 mmHg 41%
    Show more